Regional Weather Roundup
Issued by NWS

Home | Current Version | Previous Version | Graphics & Text | Print | Product List | Glossary On
Versions: 1 2 3 4 5 6 7 8 9 10 11 12 13 14 15 16 17 18 19 20 21 22 23 24 25 26 27 28 29 30 31 32 33 34 35 36 37 38 39 40 41 42 43 44 45 46 47 48 49 50
811
ASUS45 KCYS 202210
RWRWY

WYOMING REGIONAL WEATHER ROUNDUP
NATIONAL WEATHER SERVICE CHEYENNE WY
300 PM MST MON NOV 20 2017

NOTE:  "FAIR" INDICATES FEW OR NO CLOUDS BELOW 12,000 FEET
WITH NO SIGNIFICANT WEATHER AND/OR OBSTRUCTIONS TO VISIBILITY.

WYZ001-202300-
YELLOWSTONE NATIONAL PARK

CITY           SKY/WX    TMP DP  RH WIND       PRES   REMARKS
LK YELLOWSTONE   N/A     28  25  88 VRB5      29.97R WCI  23
W YELLOWSTONE  NOT AVBL

$$
WYZ002>013-054>058-071-098>099-202300-
NORTHERN WYOMING

CITY           SKY/WX    TMP DP  RH WIND       PRES   REMARKS
JACKSON        LGT RAIN  36  25  64 SW21      29.99S WCI  25
CODY           FAIR      48  27  44 W17G29    29.78R
GREYBULL       FAIR      41  25  53 SE5       29.77F
WORLAND        FAIR      37  30  75 NW3       29.77F
SHERIDAN       PTSUNNY   52  28  39 N5        29.68F
BUFFALO        FAIR      52  25  35 SE9       29.72S
GILLETTE       FAIR      53  22  29 W5        29.71R
HULETT         FAIR      55  23  28 NW12G17   29.70R
NEWCASTLE      FAIR      48  19  32 NW7       29.73R

$$
WYZ014>020-022>026-101>103-202300-
CENTRAL WYOMING

CITY           SKY/WX    TMP DP  RH WIND       PRES   REMARKS
BIG PINEY      PTSUNNY   38  26  62 NW8       30.00F WCI  32
PINEDALE       CLOUDY    37  23  56 NW5       30.01S WCI  34
DUBOIS         MOCLDY    36  23  60 N24G39    29.86S WCI  24
LANDER         FAIR      48  21  34 SE6       29.81S
RIVERTON       FAIR      45  24  43 S5        29.83S
CASPER         FAIR      44  19  36 SW18      29.84S
DOUGLAS        FAIR      50  23  34 NW13G21   29.78S

$$
WYZ021-027>030-104>119-202300-
SOUTHERN WYOMING

CITY           SKY/WX    TMP DP  RH WIND       PRES   REMARKS
EVANSTON       FAIR      38  25  59 SW15G24   30.07F WCI  29
KEMMERER       FAIR      36  25  64 SW8       30.02F WCI  29
FORT BRIDGER   CLOUDY    39  26  58 W17       30.06F WCI  30
ROCK SPRINGS   CLOUDY    37  19  48 W23       30.04R WCI  26
DIXON          FAIR      40  19  43 W5        30.08S
RAWLINS        FAIR      40  17  39 SW26G35   29.94F WCI  29
SARATOGA       FAIR      43  14  31 CALM      30.02S
LARAMIE        CLOUDY    47  10  22 VRB6      29.95S
CHEYENNE       FAIR      56   9  15 NW29G48   29.83R
TORRINGTON     FAIR      57  16  20 W29G38    29.75R
PINE BLUFFS    FAIR      59  10  14 W35G41    29.80R

$$




USA.gov is the U.S. government's official web portal to all federal, state and local government web resources and services.